START_TIME,STEP,MOV.,M15,t_acc.,M20,t_acc.
1979-07-13 00:00:44.260 ,0,0,0.,24.0,0.,24.0
1979-07-13 00:01:08.260 ,1,1,0.,24.0,0.,24.0
1979-07-13 00:01:32.260 ,1,0,1.,24.0,0.,24.0
1979-07-13 00:01:56.260 ,2,1,0.,24.0,0.,24.0
1979-07-13 00:02:20.260 ,2,0,0.,24.0,0.,24.0
1979-07-13 00:02:44.260 ,3,1,0.,24.0,0.,24.0
1979-07-13 00:03:08.260 ,3,0,0.,24.0,0.,24.0
1979-07-13 00:03:32.260 ,4,1,0.,24.0,0.,24.0
1979-07-13 00:03:56.260 ,4,0,0.,24.0,0.,24.0
1979-07-13 00:04:20.260 ,5,1,0.,24.0,0.,24.0
1979-07-13 00:04:44.260 ,5,0,0.,24.0,0.,24.0
1979-07-13 00:05:08.260 ,6,1,0.,24.0,0.,24.0
1979-07-13 00:05:32.260 ,6,0,0.,24.0,0.,24.0
1979-07-13 00:05:56.260 ,7,1,0.,24.0,0.,24.0
1979-07-13 00:06:20.260 ,7,0,0.,24.0,0.,24.0
1979-07-13 00:06:44.260 ,7,1,0.,24.0,0.,24.0
1979-07-13 00:07:08.260 ,7,0,0.,24.0,0.,24.0
1979-07-13 00:07:32.260 ,6,1,0.,24.0,0.,24.0
1979-07-13 00:07:56.260 ,6,0,0.,24.0,0.,24.0
1979-07-13 00:08:20.260 ,5,1,0.,24.0,0.,24.0
1979-07-13 00:08:44.260 ,5,0,0.,24.0,0.,24.0
1979-07-13 00:09:08.260 ,4,1,1.,24.0,0.,24.0
1979-07-13 00:09:32.260 ,4,0,0.,24.0,0.,24.0
1979-07-13 00:09:56.260 ,3,1,1.,24.0,0.,24.0
1979-07-13 00:10:20.260 ,3,0,0.,24.0,0.,24.0
1979-07-13 00:10:44.260 ,2,1,0.,24.0,0.,24.0
1979-07-13 00:11:08.260 ,2,0,0.,24.0,0.,24.0
1979-07-13 00:11:32.260 ,1,1,1.,24.0,0.,24.0
1979-07-13 00:11:56.260 ,1,0,0.,24.0,0.,24.0
1979-07-13 00:12:20.260 ,0,1,0.,24.0,0.,24.0
1979-07-13 00:12:44.260 ,0,0,0.,24.0,0.,24.0
1979-07-13 00:13:08.260 ,0,1,2.,24.0,0.,24.0
1979-07-13 00:13:32.260 ,0,0,0.,24.0,0.,24.0
1979-07-13 00:13:56.260 ,1,1,1.,24.0,0.,24.0
1979-07-13 00:14:20.260 ,1,0,1.,24.0,0.,24.0
1979-07-13 00:14:44.260 ,2,1,0.,24.0,0.,24.0
1979-07-13 00:15:08.260 ,2,0,0.,24.0,0.,24.0
1979-07-13 00:15:32.260 ,3,1,0.,24.0,0.,24.0
1979-07-13 00:15:56.260 ,3,0,0.,24.0,0.,24.0
1979-07-13 00:16:20.260 ,4,1,0.,24.0,0.,24.0
1979-07-13 00:16:44.260 ,4,0,0.,24.0,0.,24.0
1979-07-13 00:17:08.260 ,5,1,0.,24.0,0.,24.0
1979-07-13 00:17:32.260 ,5,0,0.,24.0,0.,24.0
1979-07-13 00:17:56.260 ,6,1,0.,24.0,0.,24.0
1979-07-13 00:18:20.260 ,6,0,0.,24.0,0.,24.0
1979-07-13 00:18:44.260 ,7,0,0.,24.0,0.,24.0
1979-07-13 00:19:08.260 ,7,0,0.,24.0,0.,24.0
1979-07-13 00:19:32.260 ,3,1,0.,24.0,0.,24.0
1979-07-13 00:19:56.260 ,0,1,0.,24.0,0.,24.0
1979-07-13 00:20:20.260 ,4,1,0.,24.0,0.,24.0
1979-07-13 00:20:44.260 ,7,1,0.,24.0,0.,24.0
1979-07-13 00:21:08.260 ,3,1,0.,24.0,0.,24.0
1979-07-13 00:21:32.260 ,0,1,0.,24.0,0.,24.0
1979-07-13 00:21:56.260 ,4,1,1.,24.0,0.,24.0
1979-07-13 00:22:20.260 ,7,1,0.,24.0,0.,24.0
1979-07-13 00:22:44.260 ,3,1,0.,24.0,0.,24.0
1979-07-13 00:23:08.260 ,0,1,0.,24.0,0.,24.0
1979-07-13 00:23:32.260 ,4,1,0.,24.0,0.,24.0
1979-07-13 00:23:56.260 ,7,1,0.,24.0,0.,24.0
1979-07-13 00:24:20.260 ,3,1,0.,24.0,0.,24.0
1979-07-13 00:24:44.260 ,0,1,0.,24.0,0.,24.0
1979-07-13 00:25:08.260 ,4,1,0.,24.0,0.,24.0
1979-07-13 00:25:32.260 ,7,1,0.,24.0,0.,24.0
1979-07-13 00:25:56.260 ,3,1,0.,24.0,0.,24.0
1979-07-13 00:26:20.260 ,0,1,1.,24.0,0.,24.0
1979-07-13 00:26:44.260 ,4,1,0.,24.0,0.,24.0
1979-07-13 00:27:08.260 ,7,1,0.,24.0,0.,24.0
1979-07-13 00:27:32.260 ,3,1,0.,24.0,0.,24.0
1979-07-13 00:27:56.260 ,0,1,0.,24.0,0.,24.0
1979-07-13 00:28:20.260 ,4,1,0.,24.0,0.,24.0
1979-07-13 00:28:44.260 ,7,1,0.,24.0,0.,24.0
1979-07-13 00:29:08.260 ,3,1,0.,24.0,0.,24.0
1979-07-13 00:29:32.260 ,0,1,0.,24.0,0.,24.0
1979-07-13 00:29:56.260 ,0,0,0.,24.0,0.,24.0
1979-07-13 00:30:20.260 ,0,0,0.,24.0,0.,24.0
1979-07-13 00:30:44.260 ,5,1,0.,24.0,0.,24.0
1979-07-13 00:31:08.260 ,5,0,0.,24.0,0.,24.0
1979-07-13 00:31:32.260 ,4,1,0.,24.0,0.,24.0
1979-07-13 00:31:56.260 ,4,0,0.,24.0,0.,24.0
1979-07-13 00:32:20.260 ,3,1,0.,24.0,0.,24.0
1979-07-13 00:32:44.260 ,3,0,0.,24.0,0.,24.0
1979-07-13 00:33:08.260 ,2,1,0.,24.0,0.,24.0
1979-07-13 00:33:32.260 ,2,0,0.,24.0,0.,24.0
1979-07-13 00:33:56.260 ,1,1,0.,24.0,0.,24.0
1979-07-13 00:34:20.260 ,1,0,0.,24.0,0.,24.0
1979-07-13 00:34:44.260 ,0,1,0.,24.0,0.,24.0
1979-07-13 00:35:08.260 ,0,0,0.,24.0,0.,24.0
1979-07-13 00:35:32.260 ,0,1,0.,24.0,0.,24.0
1979-07-13 00:35:56.260 ,0,0,1.,24.0,0.,24.0
1979-07-13 00:36:20.260 ,1,1,0.,24.0,0.,24.0
1979-07-13 00:36:44.260 ,1,0,0.,24.0,0.,24.0
1979-07-13 00:37:08.260 ,2,1,0.,24.0,0.,24.0
1979-07-13 00:37:32.260 ,2,0,0.,24.0,0.,24.0
1979-07-13 00:37:56.260 ,3,1,0.,24.0,0.,24.0
1979-07-13 00:38:20.260 ,3,0,0.,24.0,0.,24.0
1979-07-13 00:38:44.260 ,4,1,0.,24.0,0.,24.0
1979-07-13 00:39:08.260 ,4,0,0.,24.0,0.,24.0
1979-07-13 00:39:32.260 ,5,1,0.,24.0,0.,24.0
1979-07-13 00:39:56.260 ,5,0,0.,24.0,0.,24.0
1979-07-13 00:40:20.260 ,6,1,0.,24.0,0.,24.0
1979-07-13 00:40:44.260 ,6,0,0.,24.0,0.,24.0
1979-07-13 00:41:08.260 ,7,1,0.,24.0,0.,24.0
1979-07-13 00:41:32.260 ,7,0,0.,24.0,0.,24.0
1979-07-13 00:41:56.260 ,7,1,0.,24.0,0.,24.0
1979-07-13 00:42:20.260 ,7,0,0.,24.0,0.,24.0
1979-07-13 00:42:44.260 ,6,1,1.,24.0,0.,24.0
1979-07-13 00:43:08.260 ,6,0,0.,24.0,0.,24.0
1979-07-13 00:43:32.260 ,5,1,0.,24.0,0.,24.0
1979-07-13 00:43:56.260 ,5,0,0.,24.0,0.,24.0
1979-07-13 00:44:20.260 ,4,1,0.,24.0,0.,24.0
1979-07-13 00:44:44.260 ,4,0,0.,24.0,0.,24.0
1979-07-13 00:45:08.260 ,3,1,0.,24.0,0.,24.0
1979-07-13 00:45:32.260 ,3,0,0.,24.0,0.,24.0
1979-07-13 00:45:56.260 ,2,1,0.,24.0,0.,24.0
1979-07-13 00:46:20.260 ,2,0,1.,24.0,0.,24.0
1979-07-13 00:46:44.260 ,1,1,0.,24.0,0.,24.0
1979-07-13 00:47:08.260 ,1,0,0.,24.0,0.,24.0
1979-07-13 00:47:32.260 ,0,1,1.,24.0,0.,24.0
1979-07-13 00:47:56.260 ,0,0,0.,24.0,0.,24.0
1979-07-13 00:48:20.260 ,0,1,0.,24.0,0.,24.0
1979-07-13 00:48:44.260 ,0,0,0.,24.0,0.,24.0
1979-07-13 00:49:08.260 ,1,1,0.,24.0,0.,24.0
1979-07-13 00:49:32.260 ,1,0,0.,24.0,0.,24.0
1979-07-13 00:49:56.260 ,2,1,0.,24.0,0.,24.0
1979-07-13 00:50:20.260 ,2,0,0.,24.0,0.,24.0
1979-07-13 00:50:44.260 ,3,1,0.,24.0,0.,24.0
1979-07-13 00:51:08.260 ,3,0,0.,24.0,0.,24.0
1979-07-13 00:51:32.260 ,4,1,0.,24.0,0.,24.0
1979-07-13 00:51:56.260 ,4,0,0.,24.0,0.,24.0
1979-07-13 00:52:20.250 ,5,1,0.,24.0,0.,24.0
1979-07-13 00:52:44.250 ,5,0,0.,24.0,0.,24.0
1979-07-13 00:53:08.250 ,6,1,0.,24.0,0.,24.0
1979-07-13 00:53:32.250 ,6,0,0.,24.0,0.,24.0
1979-07-13 00:53:56.250 ,7,1,0.,24.0,0.,24.0
1979-07-13 00:54:20.250 ,7,0,0.,24.0,0.,24.0
1979-07-13 00:54:44.250 ,7,1,0.,24.0,0.,24.0
1979-07-13 00:55:08.250 ,7,0,0.,24.0,0.,24.0
1979-07-13 00:55:32.250 ,6,1,0.,24.0,0.,24.0
1979-07-13 00:55:56.250 ,6,0,0.,24.0,0.,24.0
1979-07-13 00:56:20.250 ,5,1,1.,24.0,0.,24.0
1979-07-13 00:56:44.250 ,5,0,0.,24.0,0.,24.0
1979-07-13 00:57:08.250 ,4,1,1.,24.0,0.,24.0
1979-07-13 00:57:32.250 ,4,0,0.,24.0,0.,24.0
1979-07-13 00:57:56.250 ,3,1,0.,24.0,0.,24.0
1979-07-13 00:58:20.250 ,3,0,0.,24.0,0.,24.0
1979-07-13 00:58:44.250 ,2,1,0.,24.0,0.,24.0
1979-07-13 00:59:08.250 ,2,0,2.,24.0,0.,24.0
1979-07-13 00:59:32.250 ,1,1,1.,24.0,0.,24.0
1979-07-13 00:59:56.250 ,1,0,0.,24.0,0.,24.0
1979-07-13 01:00:20.250 ,0,1,0.,24.0,0.,24.0
1979-07-13 01:00:44.260 ,0,0,0.,24.0,0.,24.0
1979-07-13 01:01:08.260 ,0,1,0.,24.0,0.,24.0
1979-07-13 01:01:32.260 ,0,0,0.,24.0,0.,24.0
1979-07-13 01:01:56.260 ,1,1,0.,24.0,0.,24.0
1979-07-13 01:02:20.260 ,1,0,0.,24.0,0.,24.0
1979-07-13 01:02:44.260 ,2,1,0.,24.0,0.,24.0
1979-07-13 01:03:08.260 ,2,0,0.,24.0,0.,24.0
1979-07-13 01:03:32.260 ,3,1,0.,24.0,0.,24.0
1979-07-13 01:03:56.260 ,3,0,0.,24.0,0.,24.0
1979-07-13 01:04:20.260 ,4,1,0.,24.0,0.,24.0
1979-07-13 01:04:44.260 ,4,0,0.,24.0,0.,24.0
1979-07-13 01:05:08.260 ,5,1,1.,24.0,0.,24.0
1979-07-13 01:05:32.260 ,5,0,0.,24.0,0.,24.0
1979-07-13 01:05:56.260 ,6,1,0.,24.0,0.,24.0
1979-07-13 01:06:20.260 ,6,0,0.,24.0,0.,24.0
1979-07-13 01:06:44.260 ,7,0,0.,24.0,0.,24.0
1979-07-13 01:07:08.260 ,7,0,0.,24.0,0.,24.0
1979-07-13 01:07:32.260 ,3,1,0.,24.0,0.,24.0
1979-07-13 01:07:56.260 ,0,1,0.,24.0,0.,24.0
1979-07-13 01:08:20.260 ,4,1,0.,24.0,0.,24.0
1979-07-13 01:08:44.260 ,7,1,0.,24.0,0.,24.0
1979-07-13 01:09:08.260 ,3,1,0.,24.0,0.,24.0
1979-07-13 01:09:32.260 ,0,1,0.,24.0,0.,24.0
1979-07-13 01:09:56.260 ,4,1,0.,24.0,0.,24.0
1979-07-13 01:10:20.260 ,7,1,0.,24.0,0.,24.0
1979-07-13 01:10:44.260 ,3,1,1.,24.0,0.,24.0
1979-07-13 01:11:08.260 ,0,1,0.,24.0,0.,24.0
1979-07-13 01:11:32.260 ,4,1,0.,24.0,0.,24.0
1979-07-13 01:11:56.260 ,7,1,0.,24.0,0.,24.0
1979-07-13 01:12:20.260 ,3,1,0.,24.0,0.,24.0
1979-07-13 01:12:44.260 ,0,1,0.,24.0,0.,24.0
1979-07-13 01:13:08.260 ,4,1,0.,24.0,0.,24.0
1979-07-13 01:13:32.260 ,7,1,0.,24.0,0.,24.0
1979-07-13 01:13:56.260 ,3,1,1.,24.0,0.,24.0
1979-07-13 01:14:20.260 ,0,1,0.,24.0,0.,24.0
1979-07-13 01:14:44.260 ,4,1,0.,24.0,0.,24.0
1979-07-13 01:15:08.260 ,7,1,1.,24.0,0.,24.0
1979-07-13 01:15:32.260 ,3,1,0.,24.0,0.,24.0
1979-07-13 01:15:56.260 ,0,1,0.,24.0,0.,24.0
1979-07-13 01:16:20.260 ,4,1,0.,24.0,0.,24.0
1979-07-13 01:16:44.260 ,7,1,0.,24.0,0.,24.0
1979-07-13 01:17:08.260 ,3,1,0.,24.0,0.,24.0
1979-07-13 01:17:32.260 ,0,1,0.,24.0,0.,24.0
1979-07-13 01:17:56.260 ,0,0,1.,24.0,0.,24.0
1979-07-13 01:18:20.260 ,0,0,0.,24.0,0.,24.0
1979-07-13 01:18:44.250 ,5,1,0.,24.0,0.,24.0
1979-07-13 01:19:08.250 ,5,0,0.,24.0,0.,24.0
1979-07-13 01:19:32.250 ,4,1,0.,24.0,0.,24.0
1979-07-13 01:19:56.250 ,4,0,0.,24.0,0.,24.0
1979-07-13 01:20:20.250 ,3,1,0.,24.0,0.,24.0
1979-07-13 01:20:44.250 ,3,0,0.,24.0,0.,24.0
1979-07-13 01:21:08.250 ,2,1,0.,24.0,0.,24.0
1979-07-13 01:21:32.250 ,2,0,0.,24.0,0.,24.0
1979-07-13 01:21:56.250 ,1,1,0.,24.0,0.,24.0
1979-07-13 01:22:20.250 ,1,0,0.,24.0,0.,24.0
1979-07-13 01:22:44.250 ,0,1,0.,24.0,0.,24.0
1979-07-13 01:23:08.250 ,0,0,0.,24.0,0.,24.0
1979-07-13 01:23:32.250 ,0,1,0.,24.0,0.,24.0
1979-07-13 01:23:56.250 ,0,0,0.,24.0,0.,24.0
1979-07-13 01:24:20.250 ,1,1,0.,24.0,0.,24.0
1979-07-13 01:24:44.250 ,1,0,0.,24.0,0.,24.0
1979-07-13 01:25:08.250 ,2,1,1.,24.0,0.,24.0
1979-07-13 01:25:32.250 ,2,0,0.,24.0,0.,24.0
1979-07-13 01:25:56.250 ,3,1,0.,24.0,0.,24.0
1979-07-13 01:26:20.250 ,3,0,0.,24.0,0.,24.0
1979-07-13 01:26:44.250 ,4,1,0.,24.0,0.,24.0
1979-07-13 01:27:08.250 ,4,0,0.,24.0,0.,24.0
1979-07-13 01:27:32.250 ,5,1,0.,24.0,0.,24.0
1979-07-13 01:27:56.250 ,5,0,1.,24.0,0.,24.0
1979-07-13 01:28:20.250 ,6,1,0.,24.0,0.,24.0
1979-07-13 01:28:44.250 ,6,0,0.,24.0,0.,24.0
1979-07-13 01:29:08.250 ,7,1,0.,24.0,0.,24.0
1979-07-13 01:29:32.250 ,7,0,1.,24.0,0.,24.0
1979-07-13 01:29:56.250 ,7,1,0.,24.0,0.,24.0
1979-07-13 01:30:20.250 ,7,0,1.,24.0,0.,24.0
1979-07-13 01:30:44.250 ,6,1,0.,24.0,0.,24.0
1979-07-13 01:31:08.250 ,6,0,0.,24.0,0.,24.0
1979-07-13 01:31:32.250 ,5,1,0.,24.0,0.,24.0
1979-07-13 01:31:56.250 ,5,0,0.,24.0,0.,24.0
1979-07-13 01:32:20.250 ,4,1,0.,24.0,0.,24.0
1979-07-13 01:32:44.250 ,4,0,0.,24.0,0.,24.0
1979-07-13 01:33:08.250 ,3,1,0.,24.0,0.,24.0
1979-07-13 01:33:32.250 ,3,0,0.,24.0,0.,24.0
1979-07-13 01:33:56.250 ,2,1,0.,24.0,0.,24.0
1979-07-13 01:34:20.250 ,2,0,0.,24.0,0.,24.0
1979-07-13 01:34:44.250 ,1,1,1.,24.0,0.,24.0
1979-07-13 01:35:08.250 ,1,0,0.,24.0,0.,24.0
1979-07-13 01:35:32.250 ,0,1,0.,24.0,0.,24.0
1979-07-13 01:35:56.250 ,0,0,0.,24.0,0.,24.0
1979-07-13 01:36:20.250 ,0,1,0.,24.0,0.,24.0
1979-07-13 01:36:44.250 ,0,0,0.,24.0,0.,24.0
1979-07-13 01:37:08.250 ,1,1,0.,24.0,0.,24.0
1979-07-13 01:37:32.250 ,1,0,0.,24.0,0.,24.0
1979-07-13 01:37:56.250 ,2,1,0.,24.0,0.,24.0
1979-07-13 01:38:20.250 ,2,0,0.,24.0,0.,24.0
1979-07-13 01:38:44.250 ,3,1,0.,24.0,0.,24.0
1979-07-13 01:39:08.250 ,3,0,0.,24.0,0.,24.0
1979-07-13 01:39:32.250 ,4,1,0.,24.0,0.,24.0
1979-07-13 01:39:56.250 ,4,0,0.,24.0,0.,24.0
1979-07-13 01:40:20.250 ,5,1,0.,24.0,0.,24.0
1979-07-13 01:40:44.250 ,5,0,0.,24.0,0.,24.0
1979-07-13 01:41:08.250 ,6,1,0.,24.0,0.,24.0
1979-07-13 01:41:32.250 ,6,0,0.,24.0,0.,24.0
1979-07-13 01:41:56.250 ,7,1,1.,24.0,0.,24.0
1979-07-13 01:42:20.250 ,7,0,0.,24.0,0.,24.0
1979-07-13 01:42:44.250 ,7,1,0.,24.0,0.,24.0
1979-07-13 01:43:08.250 ,7,0,0.,24.0,0.,24.0
1979-07-13 01:43:32.250 ,6,1,0.,24.0,0.,24.0
1979-07-13 01:43:56.250 ,6,0,0.,24.0,0.,24.0
1979-07-13 01:44:20.250 ,5,1,0.,24.0,0.,24.0
1979-07-13 01:44:44.250 ,5,0,0.,24.0,0.,24.0
1979-07-13 01:45:08.250 ,4,1,0.,24.0,0.,24.0
1979-07-13 01:45:32.250 ,4,0,0.,24.0,0.,24.0
1979-07-13 01:45:56.250 ,3,1,0.,24.0,0.,24.0
1979-07-13 01:46:20.250 ,3,0,0.,24.0,0.,24.0
1979-07-13 01:46:44.250 ,2,1,0.,24.0,0.,24.0
1979-07-13 01:47:08.250 ,2,0,0.,24.0,0.,24.0
1979-07-13 01:47:32.250 ,1,1,0.,24.0,0.,24.0
1979-07-13 01:47:56.250 ,1,0,0.,24.0,0.,24.0
1979-07-13 01:48:20.250 ,0,1,0.,24.0,0.,24.0
1979-07-13 01:48:44.250 ,0,0,0.,24.0,0.,24.0
1979-07-13 01:49:08.250 ,0,1,0.,24.0,0.,24.0
1979-07-13 01:49:32.250 ,0,0,1.,24.0,0.,24.0
1979-07-13 01:49:56.250 ,1,1,0.,24.0,0.,24.0
1979-07-13 01:50:20.250 ,1,0,0.,24.0,0.,24.0
1979-07-13 01:50:44.250 ,2,1,1.,24.0,0.,24.0
1979-07-13 01:51:08.250 ,2,0,0.,24.0,0.,24.0
1979-07-13 01:51:32.250 ,3,1,0.,24.0,0.,24.0
1979-07-13 01:51:56.250 ,3,0,0.,24.0,0.,24.0
1979-07-13 01:52:20.250 ,4,1,0.,24.0,0.,24.0
1979-07-13 01:52:44.250 ,4,0,0.,24.0,0.,24.0
1979-07-13 01:53:08.250 ,5,1,0.,24.0,0.,24.0
1979-07-13 01:53:32.250 ,5,0,0.,24.0,0.,24.0
1979-07-13 01:53:56.250 ,6,1,0.,24.0,0.,24.0
1979-07-13 01:54:20.250 ,6,0,0.,24.0,0.,24.0
1979-07-13 01:54:44.250 ,7,0,0.,24.0,0.,24.0
1979-07-13 01:55:08.250 ,7,0,0.,24.0,0.,24.0
1979-07-13 01:55:32.250 ,3,1,2.,24.0,0.,24.0
1979-07-13 01:55:56.250 ,0,1,0.,24.0,0.,24.0
1979-07-13 01:56:20.250 ,4,1,0.,24.0,0.,24.0
1979-07-13 01:56:44.250 ,7,1,0.,24.0,0.,24.0
1979-07-13 01:57:08.250 ,3,1,0.,24.0,0.,24.0
1979-07-13 01:57:32.250 ,0,1,2.,24.0,0.,24.0
1979-07-13 01:57:56.250 ,4,1,0.,24.0,0.,24.0
1979-07-13 01:58:20.250 ,7,1,0.,24.0,0.,24.0
1979-07-13 01:58:44.250 ,3,1,0.,24.0,0.,24.0
1979-07-13 01:59:08.250 ,0,1,0.,24.0,0.,24.0
1979-07-13 01:59:32.250 ,4,1,0.,24.0,0.,24.0
1979-07-13 01:59:56.250 ,7,1,0.,24.0,0.,24.0
1979-07-13 02:00:20.250 ,3,1,0.,24.0,0.,24.0
1979-07-13 02:00:44.250 ,0,1,0.,24.0,0.,24.0
1979-07-13 02:01:08.250 ,4,1,1.,24.0,0.,24.0
1979-07-13 02:01:32.250 ,7,1,0.,24.0,0.,24.0
1979-07-13 02:01:56.250 ,3,1,0.,24.0,0.,24.0
1979-07-13 02:02:20.250 ,0,1,0.,24.0,0.,24.0
1979-07-13 02:02:44.250 ,4,1,0.,24.0,0.,24.0
1979-07-13 02:03:08.250 ,7,1,0.,24.0,0.,24.0
1979-07-13 02:03:32.250 ,3,1,0.,24.0,0.,24.0
1979-07-13 02:03:56.250 ,0,1,0.,24.0,0.,24.0
1979-07-13 02:04:20.250 ,4,1,0.,24.0,0.,24.0
1979-07-13 02:04:44.250 ,7,1,0.,24.0,0.,24.0
1979-07-13 02:05:08.250 ,3,1,0.,24.0,0.,24.0
1979-07-13 02:05:32.250 ,0,1,0.,24.0,0.,24.0
1979-07-13 02:05:56.250 ,0,0,0.,24.0,0.,24.0
1979-07-13 02:06:20.250 ,0,0,0.,24.0,0.,24.0
1979-07-13 02:06:44.250 ,5,1,0.,24.0,0.,24.0
1979-07-13 02:07:08.250 ,5,0,0.,24.0,0.,24.0
1979-07-13 02:07:32.250 ,4,1,0.,24.0,0.,24.0
1979-07-13 02:07:56.250 ,4,0,0.,24.0,0.,24.0
1979-07-13 02:08:20.250 ,3,1,0.,24.0,0.,24.0
1979-07-13 02:08:44.250 ,0,0,0.,24.0,0.,24.0
1979-07-13 02:09:14.850 ,0,0,0.,24.0,0.,24.0
1979-07-13 02:09:32.250 ,0,0,0.,24.0,0.,24.0
1979-07-13 02:09:56.250 ,1,1,0.,24.0,0.,24.0
1979-07-13 02:10:20.250 ,1,0,0.,24.0,0.,24.0
1979-07-13 02:10:44.250 ,0,1,0.,24.0,0.,24.0
1979-07-13 02:11:08.250 ,0,0,0.,24.0,0.,24.0
1979-07-13 02:11:32.250 ,0,1,0.,24.0,0.,24.0
1979-07-13 02:11:56.250 ,0,0,1.,24.0,0.,24.0
1979-07-13 02:12:20.250 ,1,1,0.,24.0,0.,24.0
1979-07-13 02:12:44.250 ,1,0,0.,24.0,0.,24.0
1979-07-13 02:13:08.250 ,2,1,0.,24.0,0.,24.0
1979-07-13 02:13:32.250 ,2,0,0.,24.0,0.,24.0
1979-07-13 02:13:56.250 ,3,1,0.,24.0,0.,24.0
1979-07-13 02:14:20.250 ,3,0,0.,24.0,0.,24.0
1979-07-13 02:14:44.250 ,4,1,0.,24.0,0.,24.0
1979-07-13 02:15:08.250 ,4,0,0.,24.0,0.,24.0
1979-07-13 02:15:32.250 ,5,1,0.,24.0,0.,24.0
1979-07-13 02:15:56.250 ,5,0,0.,24.0,0.,24.0
1979-07-13 02:16:20.250 ,6,1,0.,24.0,0.,24.0
1979-07-13 02:16:44.250 ,6,0,0.,24.0,0.,24.0
1979-07-13 02:17:08.250 ,7,1,0.,24.0,0.,24.0
1979-07-13 02:17:32.250 ,7,0,0.,24.0,0.,24.0
1979-07-13 02:17:56.250 ,7,1,1.,24.0,0.,24.0
1979-07-13 02:18:20.250 ,7,0,0.,24.0,0.,24.0
1979-07-13 02:18:44.250 ,6,1,0.,24.0,0.,24.0
1979-07-13 02:19:08.250 ,6,0,0.,24.0,0.,24.0
1979-07-13 02:19:32.250 ,5,1,0.,24.0,0.,24.0
1979-07-13 02:19:56.250 ,5,0,0.,24.0,0.,24.0
1979-07-13 02:20:20.250 ,4,1,0.,24.0,0.,24.0
1979-07-13 02:20:44.250 ,4,0,0.,24.0,0.,24.0
1979-07-13 02:21:08.250 ,3,1,1.,24.0,0.,24.0
1979-07-13 02:21:32.250 ,3,0,0.,24.0,0.,24.0
1979-07-13 02:21:56.250 ,2,1,0.,24.0,0.,24.0
1979-07-13 02:22:20.250 ,2,0,0.,24.0,0.,24.0
1979-07-13 02:22:44.250 ,1,1,0.,24.0,0.,24.0
1979-07-13 02:23:08.250 ,0,0,,0,,0
1979-07-13 02:23:11.850 ,0,0,0.,24.0,0.,24.0
1979-07-13 02:23:32.250 ,0,1,0.,24.0,0.,24.0
1979-07-13 02:23:56.250 ,0,0,0.,24.0,0.,24.0
1979-07-13 02:24:20.250 ,0,1,0.,24.0,0.,24.0
1979-07-13 02:24:44.250 ,0,0,0.,24.0,0.,24.0
1979-07-13 02:25:08.250 ,1,1,0.,24.0,0.,24.0
1979-07-13 02:25:32.250 ,1,0,0.,24.0,0.,24.0
1979-07-13 02:25:56.250 ,2,1,0.,24.0,0.,24.0
1979-07-13 02:26:20.250 ,2,0,0.,24.0,0.,24.0
1979-07-13 02:26:44.250 ,3,1,0.,24.0,0.,24.0
1979-07-13 02:27:08.250 ,3,0,0.,24.0,0.,24.0
1979-07-13 02:27:32.250 ,4,1,0.,24.0,0.,24.0
1979-07-13 02:27:56.250 ,4,0,0.,24.0,0.,24.0
1979-07-13 02:28:20.250 ,5,1,0.,24.0,0.,24.0
1979-07-13 02:28:44.250 ,5,0,0.,24.0,0.,24.0
1979-07-13 02:29:08.250 ,6,1,0.,24.0,0.,24.0
1979-07-13 02:29:32.250 ,6,0,0.,24.0,0.,24.0
1979-07-13 02:29:56.250 ,7,1,0.,24.0,0.,24.0
1979-07-13 02:30:20.250 ,7,0,0.,24.0,0.,24.0
1979-07-13 02:30:44.250 ,7,1,0.,24.0,0.,24.0
1979-07-13 02:31:08.250 ,7,0,0.,24.0,0.,24.0
1979-07-13 02:31:32.250 ,6,1,0.,24.0,0.,24.0
1979-07-13 02:31:56.250 ,6,0,0.,24.0,0.,24.0
1979-07-13 02:32:20.250 ,5,1,0.,24.0,0.,24.0
1979-07-13 02:32:44.250 ,5,0,1.,24.0,0.,24.0
1979-07-13 02:33:08.250 ,4,1,0.,24.0,0.,24.0
1979-07-13 02:33:32.250 ,4,0,0.,24.0,0.,24.0
1979-07-13 02:33:56.250 ,3,1,0.,24.0,0.,24.0
1979-07-13 02:34:20.250 ,3,0,0.,24.0,0.,24.0
1979-07-13 02:34:44.250 ,2,1,0.,24.0,0.,24.0
1979-07-13 02:35:08.250 ,2,0,0.,24.0,0.,24.0
1979-07-13 02:35:32.250 ,1,1,0.,24.0,0.,24.0
1979-07-13 02:35:56.250 ,1,0,0.,24.0,0.,24.0
1979-07-13 02:36:20.250 ,0,1,0.,24.0,0.,24.0
1979-07-13 02:36:44.250 ,0,0,0.,24.0,0.,24.0
1979-07-13 02:37:08.250 ,0,1,0.,24.0,0.,24.0
1979-07-13 02:37:32.250 ,0,0,0.,24.0,0.,24.0
1979-07-13 02:37:56.250 ,1,1,0.,24.0,0.,24.0
1979-07-13 02:38:20.250 ,1,0,0.,24.0,0.,24.0
1979-07-13 02:38:44.250 ,2,1,0.,24.0,0.,24.0
1979-07-13 02:39:08.250 ,2,0,0.,24.0,0.,24.0
1979-07-13 02:39:32.250 ,3,1,0.,24.0,0.,24.0
1979-07-13 02:39:56.250 ,3,0,0.,24.0,0.,24.0
1979-07-13 02:40:20.250 ,4,1,0.,24.0,0.,24.0
1979-07-13 02:40:44.250 ,4,0,0.,24.0,0.,24.0
1979-07-13 02:41:08.250 ,5,1,0.,24.0,0.,24.0
1979-07-13 02:41:32.250 ,5,0,1.,24.0,0.,24.0
1979-07-13 02:41:56.250 ,6,1,0.,24.0,0.,24.0
1979-07-13 02:42:20.250 ,6,0,0.,24.0,0.,24.0
1979-07-13 02:42:44.250 ,7,0,0.,24.0,0.,24.0
1979-07-13 02:43:08.250 ,7,0,0.,24.0,0.,24.0
1979-07-13 02:43:32.250 ,3,1,0.,24.0,0.,24.0
1979-07-13 02:43:56.250 ,0,1,0.,24.0,0.,24.0
1979-07-13 02:44:20.250 ,4,1,0.,24.0,0.,24.0
1979-07-13 02:44:44.250 ,7,1,0.,24.0,0.,24.0
1979-07-13 02:45:08.250 ,3,1,0.,24.0,0.,24.0
1979-07-13 02:45:32.250 ,0,1,0.,24.0,0.,24.0
1979-07-13 02:45:56.250 ,4,1,1.,24.0,0.,24.0
1979-07-13 02:46:20.250 ,7,1,0.,24.0,0.,24.0
1979-07-13 02:46:44.250 ,3,1,0.,24.0,0.,24.0
1979-07-13 02:47:08.250 ,0,1,0.,24.0,0.,24.0
1979-07-13 02:47:32.250 ,4,1,0.,24.0,0.,24.0
1979-07-13 02:47:56.250 ,7,1,0.,24.0,0.,24.0
1979-07-13 02:48:20.250 ,3,1,0.,24.0,0.,24.0
1979-07-13 02:48:44.250 ,0,1,0.,24.0,0.,24.0
1979-07-13 02:49:08.250 ,4,1,0.,24.0,0.,24.0
1979-07-13 02:49:32.250 ,7,1,0.,24.0,0.,24.0
1979-07-13 02:49:56.250 ,3,1,0.,24.0,0.,24.0
1979-07-13 02:50:20.250 ,0,1,0.,24.0,0.,24.0
1979-07-13 02:50:44.250 ,4,1,0.,24.0,0.,24.0
1979-07-13 02:51:08.250 ,7,1,0.,24.0,0.,24.0
1979-07-13 02:51:32.250 ,3,1,0.,24.0,0.,24.0
1979-07-13 02:51:56.250 ,0,1,0.,24.0,0.,24.0
1979-07-13 02:52:20.250 ,4,1,0.,24.0,0.,24.0
1979-07-13 02:52:44.250 ,7,1,0.,24.0,0.,24.0
1979-07-13 02:53:08.250 ,3,1,0.,24.0,0.,24.0
1979-07-13 02:53:32.250 ,0,1,0.,24.0,0.,24.0
1979-07-13 02:53:56.250 ,0,0,0.,24.0,0.,24.0
1979-07-13 02:54:20.250 ,0,0,0.,24.0,0.,24.0
1979-07-13 02:54:44.250 ,5,1,0.,24.0,0.,24.0
1979-07-13 02:55:08.250 ,5,0,0.,24.0,0.,24.0
1979-07-13 02:55:32.250 ,4,1,0.,24.0,0.,24.0
1979-07-13 02:55:56.250 ,4,0,0.,24.0,0.,24.0
1979-07-13 02:56:20.250 ,3,1,0.,24.0,0.,24.0
1979-07-13 02:56:44.250 ,3,0,0.,24.0,0.,24.0
1979-07-13 02:57:08.250 ,2,1,0.,24.0,0.,24.0
1979-07-13 02:57:32.250 ,2,0,0.,24.0,0.,24.0
1979-07-13 02:57:56.250 ,1,1,0.,24.0,0.,24.0
1979-07-13 02:58:20.250 ,1,0,0.,24.0,0.,24.0
1979-07-13 02:58:44.250 ,0,1,1.,24.0,0.,24.0
1979-07-13 02:59:08.250 ,0,0,0.,24.0,0.,24.0
1979-07-13 02:59:32.250 ,0,1,0.,24.0,0.,24.0
1979-07-13 02:59:56.250 ,0,0,0.,24.0,0.,24.0
1979-07-13 03:00:20.250 ,1,1,0.,24.0,0.,24.0
